• In United Kingdom
  • List of Countries
  • For 7 days
  • Water Temperature
  • Satellite Maps
  • Weather Map
  • Weather Widgets
  • user-avatar
    Login

    Hourly Weather Lubango

    Today, 22 July, Saturday

    Time Temperature Precipitation Wind Pressure Humidity
    00:00 +12°C° 0 mm 1 mps 609 mmHg 53%
    01:00 +11°C° 0 mm 1 mps 609 mmHg 56%
    02:00 +11°C° 0 mm 1 mps 608 mmHg 56%
    03:00 +11°C° 0 mm 1 mps 608 mmHg 56%
    04:00 +11°C° 0 mm 1 mps 608 mmHg 56%
    05:00 +11°C° 0 mm 1 mps 608 mmHg 53%
    06:00 +11°C° 0 mm 1 mps 609 mmHg 51%
    07:00 +12°C° 0 mm 1 mps 609 mmHg 45%
    08:00 +15°C° 0 mm 1 mps 611 mmHg 36%
    09:00 +20°C° 0 mm 1 mps 612 mmHg 28%
    10:00 +23°C° 0 mm 1 mps 614 mmHg 20%
    11:00 +25°C° 0 mm 2 mps 614 mmHg 18%
    12:00 +26°C° 0 mm 2 mps 614 mmHg 17%
    13:00 +27°C° 0 mm 2 mps 614 mmHg 16%
    14:00 +27°C° 0 mm 2 mps 614 mmHg 18%
    15:00 +26°C° 0 mm 2 mps 613 mmHg 20%
    16:00 +25°C° 0 mm 3 mps 612 mmHg 22%
    17:00 +21°C° 0 mm 2 mps 611 mmHg 34%
    18:00 +18°C° 0 mm 2 mps 610 mmHg 45%
    19:00 +14°C° 0 mm 2 mps 609 mmHg 57%
    20:00 +13°C° 0 mm 1 mps 609 mmHg 62%
    21:00 +12°C° 0 mm 1 mps 609 mmHg 67%
    22:00 +10°C° 0 mm 0 mps 609 mmHg 72%
    23:00 +10°C° 0 mm 0 mps 609 mmHg 70%

    Tomorrow, 23 July, Sunday

    Time Temperature Precipitation Wind Pressure Humidity
    00:00 +11°C° 0 mm 1 mps 609 mmHg 68%
    01:00 +11°C° 0 mm 1 mps 609 mmHg 65%
    02:00 +11°C° 0 mm 1 mps 609 mmHg 62%
    03:00 +10°C° 0 mm 1 mps 609 mmHg 58%
    04:00 +10°C° 0 mm 1 mps 608 mmHg 54%
    05:00 +10°C° 0 mm 1 mps 609 mmHg 50%
    06:00 +10°C° 0 mm 1 mps 609 mmHg 46%
    07:00 +10°C° 0 mm 1 mps 609 mmHg 41%
    08:00 +14°C° 0 mm 2 mps 611 mmHg 32%
    09:00 +18°C° 0 mm 2 mps 613 mmHg 23%
    10:00 +24°C° 0 mm 3 mps 614 mmHg 14%
    11:00 +25°C° 0 mm 2 mps 614 mmHg 13%
    12:00 +27°C° 0 mm 2 mps 614 mmHg 11%
    13:00 +28°C° 0 mm 2 mps 614 mmHg 10%
    14:00 +28°C° 0 mm 2 mps 614 mmHg 10%
    15:00 +28°C° 0 mm 2 mps 613 mmHg 10%
    16:00 +27°C° 0 mm 2 mps 613 mmHg 11%
    17:00 +24°C° 0 mm 2 mps 612 mmHg 18%
    18:00 +19°C° 0 mm 2 mps 611 mmHg 26%
    19:00 +16°C° 0 mm 1 mps 610 mmHg 33%
    20:00 +14°C° 0 mm 1 mps 610 mmHg 37%
    21:00 +13°C° 0 mm 1 mps 610 mmHg 41%
    22:00 +12°C° 0 mm 1 mps 610 mmHg 45%
    23:00 +12°C° 0 mm 1 mps 610 mmHg 45%

    Day after tomorrow, 24 July, Monday

    Time Temperature Precipitation Wind Pressure Humidity
    00:00 +12°C° 0 mm 1 mps 610 mmHg 44%
    01:00 +12°C° 0 mm 1 mps 609 mmHg 44%
    02:00 +11°C° 0 mm 1 mps 609 mmHg 43%
    03:00 +11°C° 0 mm 1 mps 609 mmHg 42%
    04:00 +11°C° 0 mm 1 mps 609 mmHg 42%
    05:00 +11°C° 0 mm 1 mps 609 mmHg 39%
    06:00 +11°C° 0 mm 1 mps 609 mmHg 36%
    07:00 +11°C° 0 mm 1 mps 610 mmHg 34%
    08:00 +15°C° 0 mm 2 mps 612 mmHg 26%
    09:00 +19°C° 0 mm 2 mps 613 mmHg 19%
    10:00 +24°C° 0 mm 3 mps 615 mmHg 11%
    11:00 +26°C° 0 mm 3 mps 615 mmHg 10%
    12:00 +28°C° 0 mm 2 mps 615 mmHg 9%
    13:00 +29°C° 0 mm 2 mps 615 mmHg 8%
    14:00 +29°C° 0 mm 2 mps 614 mmHg 9%
    15:00 +28°C° 0 mm 2 mps 614 mmHg 10%
    16:00 +27°C° 0 mm 3 mps 613 mmHg 10%
    17:00 +24°C° 0 mm 2 mps 612 mmHg 18%
    18:00 +19°C° 0 mm 2 mps 611 mmHg 26%
    19:00 +15°C° 0 mm 1 mps 610 mmHg 33%
    20:00 +15°C° 0 mm 1 mps 610 mmHg 36%
    21:00 +14°C° 0 mm 1 mps 610 mmHg 38%
    22:00 +13°C° 0 mm 1 mps 611 mmHg 40%
    23:00 +13°C° 0 mm 1 mps 610 mmHg 39%

    25 July, Tuesday

    Time Temperature Precipitation Wind Pressure Humidity
    00:00 +13°C° 0 mm 1 mps 610 mmHg 38%
    01:00 +13°C° 0 mm 2 mps 610 mmHg 38%
    02:00 +12°C° 0 mm 1 mps 610 mmHg 36%
    03:00 +12°C° 0 mm 1 mps 609 mmHg 34%
    04:00 +12°C° 0 mm 1 mps 609 mmHg 32%
    05:00 +12°C° 0 mm 1 mps 609 mmHg 30%
    06:00 +12°C° 0 mm 1 mps 610 mmHg 29%
    07:00 +11°C° 0 mm 1 mps 610 mmHg 28%
    08:00 +15°C° 0 mm 2 mps 612 mmHg 22%
    09:00 +19°C° 0 mm 3 mps 613 mmHg 17%
    10:00 +25°C° 0 mm 3 mps 615 mmHg 11%
    11:00 +26°C° 0 mm 3 mps 615 mmHg 10%
    12:00 +27°C° 0 mm 3 mps 615 mmHg 9%
    13:00 +29°C° 0 mm 3 mps 615 mmHg 8%
    14:00 +28°C° 0 mm 3 mps 614 mmHg 9%
    15:00 +28°C° 0 mm 3 mps 613 mmHg 10%
    16:00 +27°C° 0 mm 3 mps 612 mmHg 11%
    17:00 +24°C° 0 mm 3 mps 611 mmHg 18%
    18:00 +19°C° 0 mm 2 mps 610 mmHg 25%
    19:00 +15°C° 0 mm 1 mps 609 mmHg 32%
    20:00 +15°C° 0 mm 1 mps 609 mmHg 34%
    21:00 +14°C° 0 mm 1 mps 610 mmHg 35%
    22:00 +13°C° 0 mm 1 mps 610 mmHg 37%
    23:00 +13°C° 0 mm 1 mps 609 mmHg 35%

    26 July, Wednesday

    Time Temperature Precipitation Wind Pressure Humidity
    00:00 +13°C° 0 mm 2 mps 609 mmHg 33%
    01:00 +13°C° 0 mm 2 mps 609 mmHg 31%
    02:00 +13°C° 0 mm 2 mps 609 mmHg 29%
    03:00 +12°C° 0 mm 2 mps 608 mmHg 27%
    04:00 +12°C° 0 mm 2 mps 608 mmHg 25%
    05:00 +12°C° 0 mm 2 mps 608 mmHg 23%
    06:00 +12°C° 0 mm 2 mps 609 mmHg 22%
    07:00 +12°C° 0 mm 2 mps 609 mmHg 21%
    08:00 +14°C° 0 mm 3 mps 611 mmHg 18%
    09:00 +19°C° 0 mm 3 mps 612 mmHg 14%
    10:00 +23°C° 0 mm 4 mps 614 mmHg 10%
    11:00 +26°C° 0 mm 3 mps 614 mmHg 10%
    12:00 +27°C° 0 mm 3 mps 614 mmHg 9%
    13:00 +29°C° 0 mm 3 mps 613 mmHg 8%
    14:00 +28°C° 0 mm 2 mps 613 mmHg 9%
    15:00 +28°C° 0 mm 2 mps 612 mmHg 10%
    16:00 +28°C° 0 mm 2 mps 612 mmHg 11%
    17:00 +24°C° 0 mm 2 mps 611 mmHg 19%
    18:00 +20°C° 0 mm 1 mps 610 mmHg 26%
    19:00 +16°C° 0 mm 1 mps 609 mmHg 33%
    20:00 +15°C° 0 mm 1 mps 609 mmHg 36%
    21:00 +14°C° 0 mm 1 mps 609 mmHg 39%
    22:00 +13°C° 0 mm 1 mps 609 mmHg 41%
    23:00 +13°C° 0 mm 1 mps 609 mmHg 40%

    27 July, Thursday

    Time Temperature Precipitation Wind Pressure Humidity
    00:00 +13°C° 0 mm 1 mps 609 mmHg 39%
    01:00 +12°C° 0 mm 1 mps 609 mmHg 37%
    02:00 +12°C° 0 mm 1 mps 609 mmHg 36%
    03:00 +11°C° 0 mm 1 mps 608 mmHg 34%
    04:00 +11°C° 0 mm 1 mps 608 mmHg 32%
    05:00 +11°C° 0 mm 1 mps 608 mmHg 31%
    06:00 +11°C° 0 mm 1 mps 609 mmHg 29%
    07:00 +11°C° 0 mm 1 mps 609 mmHg 28%
    08:00 +15°C° 0 mm 2 mps 611 mmHg 24%
    09:00 +19°C° 0 mm 4 mps 612 mmHg 20%
    10:00 +23°C° 0 mm 5 mps 614 mmHg 16%
    11:00 +25°C° 0 mm 4 mps 614 mmHg 14%
    12:00 +27°C° 0 mm 4 mps 614 mmHg 13%
    13:00 +28°C° 0 mm 4 mps 613 mmHg 12%
    14:00 +28°C° 0 mm 3 mps 613 mmHg 13%
    15:00 +28°C° 0 mm 3 mps 613 mmHg 14%
    16:00 +27°C° 0 mm 2 mps 612 mmHg 15%
    17:00 +24°C° 0 mm 2 mps 611 mmHg 24%
    18:00 +20°C° 0 mm 2 mps 611 mmHg 33%
    19:00 +16°C° 0 mm 1 mps 610 mmHg 42%
    20:00 +15°C° 0 mm 1 mps 610 mmHg 47%
    21:00 +14°C° 0 mm 1 mps 610 mmHg 52%
    22:00 +13°C° 0 mm 1 mps 610 mmHg 57%
    23:00 +13°C° 0 mm 1 mps 610 mmHg 57%
    Show more